JNA461 RKJY-RKPC

Flight info

Callsign JNA461
Flight time 0h 30m
Altitude 16000
Route POVOR1M POVOR Y572 UPGOS UPGOS1P
Aircraft B738/M-SDE2FGHIM3RWY/LB1

Departure

Time 2026-04-25 05:07
Airport Yeosu Airport (RKJY)

Arrival

Time 2026-04-25 05:38
Airport Jeju International Airport (RKPC)
Time Latitude Longitude Altitude Speed Heading
2026-04-25 04:54 34.84080 127.61450 99 ft 0 kts 291°
2026-04-25 04:58 34.84074 127.61470 92 ft 4 kts 293°
2026-04-25 04:58 34.84063 127.61500 93 ft 4 kts 294°
2026-04-25 04:59 34.84054 127.61523 91 ft 4 kts 295°
2026-04-25 04:59 34.84041 127.61552 91 ft 4 kts 308°
2026-04-25 04:59 34.84023 127.61574 91 ft 4 kts 335°
2026-04-25 04:59 34.84018 127.61576 90 ft 0 kts 338°
2026-04-25 05:01 34.84022 127.61574 91 ft 2 kts 338°
2026-04-25 05:02 34.84060 127.61556 94 ft 9 kts 339°
2026-04-25 05:02 34.84138 127.61518 94 ft 14 kts 337°
2026-04-25 05:02 34.84227 127.61475 95 ft 13 kts 338°
2026-04-25 05:02 34.84311 127.61433 98 ft 13 kts 338°
2026-04-25 05:03 34.84394 127.61393 96 ft 13 kts 338°
2026-04-25 05:03 34.84479 127.61351 89 ft 11 kts 338°
2026-04-25 05:03 34.84546 127.61379 88 ft 12 kts 66°
2026-04-25 05:03 34.84575 127.61467 87 ft 10 kts 68°
2026-04-25 05:04 34.84616 127.61527 89 ft 10 kts 11°
2026-04-25 05:04 34.84695 127.61497 82 ft 14 kts 337°
2026-04-25 05:04 34.84805 127.61445 70 ft 20 kts 339°
2026-04-25 05:04 34.84921 127.61389 55 ft 17 kts 338°
2026-04-25 05:05 34.85019 127.61325 44 ft 18 kts 310°
2026-04-25 05:05 34.85090 127.61307 41 ft 11 kts 86°
2026-04-25 05:05 34.85044 127.61328 45 ft 8 kts 182°
2026-04-25 05:05 34.85024 127.61336 45 ft 0 kts 156°
2026-04-25 05:06 34.84991 127.61354 50 ft 14 kts 158°
2026-04-25 05:06 34.84986 127.61356 50 ft 0 kts 158°
2026-04-25 05:06 34.84985 127.61357 50 ft 3 kts 158°
2026-04-25 05:07 34.84816 127.61439 65 ft 62 kts 159°
2026-04-25 05:07 34.84187 127.61749 94 ft 132 kts 158°
2026-04-25 05:07 34.83167 127.62236 351 ft 170 kts 155°
2026-04-25 05:07 34.82042 127.62731 1271 ft 168 kts 154°
2026-04-25 05:08 34.80971 127.63263 2319 ft 162 kts 150°
2026-04-25 05:08 34.79957 127.63816 3416 ft 157 kts 148°
2026-04-25 05:08 34.78921 127.64372 4123 ft 178 kts 149°
2026-04-25 05:08 34.77673 127.65033 4443 ft 212 kts 151°
2026-04-25 05:09 34.76234 127.65771 4862 ft 232 kts 152°
2026-04-25 05:09 34.74732 127.66534 5601 ft 235 kts 152°
2026-04-25 05:09 34.73216 127.67304 6283 ft 239 kts 153°
2026-04-25 05:09 34.71666 127.68084 6961 ft 244 kts 153°
2026-04-25 05:10 34.70036 127.68907 7396 ft 261 kts 153°
2026-04-25 05:10 34.68333 127.69767 8203 ft 268 kts 154°
2026-04-25 05:10 34.66614 127.70632 9257 ft 268 kts 155°
2026-04-25 05:10 34.64844 127.71400 10207 ft 274 kts 166°
2026-04-25 05:11 34.62870 127.71620 10654 ft 299 kts 175°
2026-04-25 05:11 34.60698 127.71708 10869 ft 326 kts 176°
2026-04-25 05:11 34.58368 127.71783 11389 ft 340 kts 176°
2026-04-25 05:12 34.53570 127.71964 13075 ft 348 kts 178°
2026-04-25 05:12 34.51132 127.72073 13915 ft 353 kts 178°
2026-04-25 05:12 34.48663 127.72190 14639 ft 358 kts 178°
2026-04-25 05:12 34.46164 127.72312 15364 ft 362 kts 178°
2026-04-25 05:13 34.43621 127.72437 15938 ft 369 kts 178°
2026-04-25 05:13 34.41078 127.72562 16114 ft 366 kts 179°
2026-04-25 05:13 34.38511 127.72683 16126 ft 374 kts 179°
2026-04-25 05:13 34.35880 127.72809 16134 ft 379 kts 179°
2026-04-25 05:14 34.33252 127.72935 16124 ft 378 kts 179°
2026-04-25 05:14 34.30623 127.73059 16127 ft 378 kts 179°
2026-04-25 05:14 34.28000 127.73094 16119 ft 376 kts 187°
2026-04-25 05:15 34.23374 127.70489 15836 ft 368 kts 223°
2026-04-25 05:15 34.21629 127.68224 15196 ft 369 kts 227°
2026-04-25 05:15 34.19940 127.65882 14591 ft 369 kts 228°
2026-04-25 05:15 34.18267 127.63544 14425 ft 368 kts 228°
2026-04-25 05:16 34.16572 127.61190 14313 ft 376 kts 227°
2026-04-25 05:16 34.14838 127.58801 14189 ft 377 kts 227°
2026-04-25 05:16 34.13137 127.56471 14136 ft 373 kts 227°
2026-04-25 05:16 34.11400 127.54103 14132 ft 372 kts 227°
2026-04-25 05:17 34.09710 127.51804 14133 ft 372 kts 227°
2026-04-25 05:17 34.07968 127.49440 14123 ft 372 kts 226°
2026-04-25 05:17 34.06265 127.47134 13928 ft 365 kts 226°
2026-04-25 05:17 34.04605 127.44881 13410 ft 364 kts 226°
2026-04-25 05:18 34.02938 127.42619 13217 ft 360 kts 226°
2026-04-25 05:18 34.01259 127.40347 13095 ft 366 kts 226°
2026-04-25 05:18 33.99553 127.38039 13022 ft 369 kts 226°
2026-04-25 05:18 33.97847 127.35733 13006 ft 368 kts 226°
2026-04-25 05:19 33.96221 127.33348 12989 ft 371 kts 237°
2026-04-25 05:19 33.95298 127.30441 13016 ft 373 kts 254°
2026-04-25 05:19 33.94732 127.27397 13004 ft 372 kts 256°
2026-04-25 05:19 33.94201 127.24352 12997 ft 372 kts 255°
2026-04-25 05:20 33.93661 127.21308 12996 ft 372 kts 255°
2026-04-25 05:20 33.93107 127.18263 13000 ft 372 kts 255°
2026-04-25 05:20 33.92540 127.15224 13001 ft 373 kts 255°
2026-04-25 05:20 33.91964 127.12172 13001 ft 374 kts 255°
2026-04-25 05:21 33.91432 127.09110 12997 ft 375 kts 261°
2026-04-25 05:21 33.91324 127.05961 13005 ft 377 kts 269°
2026-04-25 05:21 33.91375 127.02802 13003 ft 378 kts 269°
2026-04-25 05:21 33.91433 126.99633 12998 ft 379 kts 269°
2026-04-25 05:22 33.91470 126.96457 13004 ft 379 kts 269°
2026-04-25 05:22 33.91489 126.93289 13002 ft 379 kts 269°
2026-04-25 05:22 33.91495 126.90115 13002 ft 379 kts 269°
2026-04-25 05:22 33.91494 126.86943 13003 ft 379 kts 268°
2026-04-25 05:23 33.91490 126.83771 13000 ft 379 kts 268°
2026-04-25 05:23 33.91485 126.80609 13006 ft 378 kts 267°
2026-04-25 05:23 33.91239 126.77476 12972 ft 375 kts 252°
2026-04-25 05:23 33.90327 126.74567 13011 ft 372 kts 247°
2026-04-25 05:24 33.89388 126.71661 13004 ft 372 kts 248°
2026-04-25 05:24 33.88482 126.68739 13008 ft 372 kts 248°
2026-04-25 05:24 33.87608 126.65870 12995 ft 358 kts 248°
2026-04-25 05:24 33.86771 126.63111 12990 ft 345 kts 248°
2026-04-25 05:25 33.85949 126.60409 12658 ft 344 kts 248°
2026-04-25 05:25 33.85130 126.57725 12321 ft 341 kts 248°
2026-04-25 05:25 33.84314 126.55054 11990 ft 338 kts 248°
2026-04-25 05:25 33.83504 126.52407 11677 ft 337 kts 248°
2026-04-25 05:26 33.82694 126.49759 11351 ft 336 kts 248°
2026-04-25 05:26 33.81895 126.47150 11037 ft 330 kts 248°
2026-04-25 05:26 33.81109 126.44584 10710 ft 324 kts 248°
2026-04-25 05:26 33.80334 126.42057 10417 ft 319 kts 248°
2026-04-25 05:27 33.79545 126.39582 10113 ft 314 kts 242°
2026-04-25 05:27 33.78254 126.37552 9974 ft 299 kts 220°
2026-04-25 05:27 33.76694 126.36011 9953 ft 284 kts 216°
2026-04-25 05:27 33.75679 126.35051 9802 ft 280 kts 216°
2026-04-25 05:28 33.73595 126.33087 9264 ft 282 kts 215°
2026-04-25 05:28 33.72538 126.32216 9111 ft 276 kts 205°
2026-04-25 05:28 33.70125 126.31204 8520 ft 278 kts 193°
2026-04-25 05:28 33.68265 126.30541 8151 ft 279 kts 193°
2026-04-25 05:29 33.66407 126.29869 7806 ft 279 kts 193°
2026-04-25 05:29 33.65152 126.29410 7575 ft 279 kts 193°
2026-04-25 05:29 33.62738 126.28509 7103 ft 270 kts 193°
2026-04-25 05:29 33.61538 126.28060 6878 ft 265 kts 193°
2026-04-25 05:30 33.59803 126.27410 6552 ft 259 kts 192°
2026-04-25 05:30 33.57551 126.26562 6109 ft 251 kts 193°
2026-04-25 05:30 33.56433 126.26140 5896 ft 247 kts 192°
2026-04-25 05:30 33.54809 126.25527 5594 ft 242 kts 192°
2026-04-25 05:31 33.53214 126.24925 5298 ft 238 kts 192°
2026-04-25 05:31 33.51664 126.24338 5035 ft 228 kts 191°
2026-04-25 05:31 33.50182 126.23777 4730 ft 219 kts 191°
2026-04-25 05:31 33.48749 126.23237 4470 ft 214 kts 191°
2026-04-25 05:32 33.47348 126.22730 4231 ft 211 kts 187°
2026-04-25 05:32 33.45959 126.22874 4037 ft 199 kts 148°
2026-04-25 05:32 33.44904 126.23944 4008 ft 197 kts 122°
2026-04-25 05:32 33.44234 126.25353 4009 ft 195 kts 117°
2026-04-25 05:33 33.43587 126.26786 3832 ft 203 kts 116°
2026-04-25 05:33 33.42888 126.28325 3468 ft 210 kts 116°
2026-04-25 05:33 33.42230 126.29866 3066 ft 210 kts 108°
2026-04-25 05:33 33.42197 126.31580 2659 ft 211 kts 69°
2026-04-25 05:34 33.42978 126.33004 2503 ft 198 kts 57°
2026-04-25 05:34 33.43633 126.34393 2351 ft 186 kts 64°
2026-04-25 05:34 33.44276 126.35680 2248 ft 172 kts 61°
2026-04-25 05:34 33.44883 126.36824 2074 ft 152 kts 62°
2026-04-25 05:35 33.45427 126.37888 1849 ft 145 kts 63°
2026-04-25 05:35 33.45938 126.38888 1671 ft 141 kts 62°
2026-04-25 05:35 33.46441 126.39875 1486 ft 134 kts 60°
2026-04-25 05:35 33.46933 126.40835 1297 ft 133 kts 60°
2026-04-25 05:36 33.47406 126.41779 1090 ft 132 kts 62°
2026-04-25 05:36 33.47865 126.42723 951 ft 131 kts 59°
2026-04-25 05:36 33.48346 126.43641 777 ft 129 kts 59°
2026-04-25 05:36 33.48816 126.44554 594 ft 129 kts 59°
2026-04-25 05:37 33.49281 126.45479 410 ft 130 kts 60°
2026-04-25 05:37 33.49764 126.46400 232 ft 132 kts 58°
2026-04-25 05:37 33.50238 126.47327 103 ft 124 kts 59°
2026-04-25 05:37 33.50623 126.48077 92 ft 84 kts 59°
2026-04-25 05:38 33.50838 126.48495 92 ft 39 kts 62°
2026-04-25 05:38 33.50885 126.48768 91 ft 30 kts 89°
2026-04-25 05:38 33.50906 126.49007 90 ft 28 kts 63°
2026-04-25 05:38 33.50988 126.49163 88 ft 20 kts 58°
2026-04-25 05:39 33.51049 126.49286 92 ft 13 kts 71°
2026-04-25 05:39 33.51000 126.49366 90 ft 13 kts 149°
2026-04-25 05:39 33.50937 126.49396 94 ft 9 kts 192°
2026-04-25 05:39 33.50899 126.49339 92 ft 9 kts 238°
2026-04-25 05:40 33.50865 126.49276 91 ft 9 kts 238°
2026-04-25 05:40 33.50832 126.49213 90 ft 9 kts 238°
2026-04-25 05:40 33.50801 126.49151 92 ft 9 kts 239°
2026-04-25 05:40 33.50771 126.49093 91 ft 6 kts 237°
2026-04-25 05:41 33.50777 126.49058 92 ft 5 kts 336°
2026-04-25 05:41 33.50811 126.49035 89 ft 5 kts 328°
2026-04-25 05:41 33.50818 126.49031 88 ft 0 kts 329°